Location: ???????
(55.4362°N, 38.1183°E)
Time: 16:52:40
(UTC+00:00)

Cosmos 2333 Rocket - Pass Details

Date: 30 October 2021
Orbit: 837 x 865 km, 70.8° (Epoch: 04 December)

Event Time Altitude Azimuth Distance (km) Brightness Sun altitude
Rises 18:57:49 0° 272° (W) 3,419 5.9 -41.3°
Reaches altitude 10° 19:00:50 10° 288° (WNW) 2,490 5.2 -41.6°
Enters shadow 19:03:56 21° 320° (NW) 1,863 4.4 -41.9°
